Lovelock, NV

9:25 AM PDT on July 27, 2016 (GMT -0700)
Derby

Weather History for KLOL - December, 2013

Change the Weather History Date:

Saturday, December 7, 2013

  Actual Average Record
Temperature  
Mean Temperature 16 °F -  
Max Temperature 28 °F 45 °F 62 °F (1977)
Min Temperature 0 °F 19 °F 0 °F (1959)
Degree Days  
Heating Degree Days 50    
Moisture  
Dew Point 17 °F    
Average Humidity 80    
Maximum Humidity 96    
Minimum Humidity 49    
Precipitation  
Precipitation 0.03 in - - ()
Sea Level Pressure  
Sea Level Pressure 29.85 in    
Wind  
Wind Speed 7 mph (West)    
Max Wind Speed 18 mph    
Max Gust Speed -    
Visibility 6 miles    
Events Snow    
Averages and records for this station are not official NWS values.
T = Trace of Precipitation, MM = Missing Value Source: NWS Daily Summary

Daily Weather History Graph

Daily Weather History Graph

Search for Another Location

Airport or City:

Trip Planner

Search our weather history database for the weather conditions in past years. The results will help you decide how hot, cold, wet, or windy it might be!

Date:

Astronomy

Dec. 07, 2013 Rise Set
Actual Time 7:03 AM PST 4:28 PM PST
Civil Twilight 6:32 AM PST 4:58 PM PST
Nautical Twilight 5:58 AM PST 5:32 PM PST
Astronomical Twilight 5:26 AM PST 6:05 PM PST
Moon 10:51 AM PST (12/7) 10:15 PM PST (12/7)
Length of Visible Light 10h 26m
Length of Day
9h 25m
Waxing Crescent, 30% of the Moon is Illuminated
Dec 7
Waxing Crescent
Dec 9
First Quarter
Dec 17
Full
Dec 25
Last Quarter
Jan 1
New

Hourly Weather History & Observations

Time (PST) Temp. Windchill Dew Point Humidity Pressure Visibility Wind Dir Wind Speed Gust Speed Precip Events Conditions
12:04 AM 26.1 °F 19.4 °F 23.0 °F 88% 29.71 in 2.5 mi WSW 5.8 mph - 0.00 in Snow Light Snow
12:11 AM 26.1 °F 18.4 °F 23.0 °F 88% 29.71 in 6.0 mi WSW 6.9 mph - 0.00 in Snow Light Snow
12:24 AM 26.1 °F 20.5 °F 23.0 °F 88% 29.70 in 2.5 mi WSW 4.6 mph - 0.00 in Snow Light Snow
12:35 AM 26.1 °F 19.4 °F 23.0 °F 88% 29.70 in 0.8 mi SW 5.8 mph - 0.00 in Snow Light Snow
12:44 AM 26.1 °F 19.4 °F 24.1 °F 92% 29.69 in 0.8 mi SW 5.8 mph - 0.00 in Snow Light Snow
12:53 AM 26.1 °F 18.4 °F 23.0 °F 88% 29.76 in 1.0 mi SW 6.9 mph - 0.00 in Snow Light Snow
1:17 AM 26.1 °F 18.4 °F 24.1 °F 92% 29.69 in 0.8 mi SSW 6.9 mph - 0.02 in Snow Light Snow
1:31 AM 26.1 °F 19.4 °F 24.1 °F 92% 29.68 in 1.5 mi SW 5.8 mph - 0.03 in Snow Light Snow
1:36 AM 25.0 °F 18.1 °F 23.0 °F 92% 29.68 in 2.0 mi SW 5.8 mph - 0.03 in Snow Light Snow
1:53 AM 26.1 °F 17.6 °F 24.1 °F 92% 29.74 in 1.5 mi SSW 8.1 mph - 0.03 in Snow Light Snow
2:08 AM 25.0 °F 18.1 °F 24.1 °F 96% 29.67 in 2.0 mi SSW 5.8 mph - 0.00 in Snow Light Snow
2:23 AM 26.1 °F 18.4 °F 24.1 °F 92% 29.66 in 1.8 mi SSW 6.9 mph - 0.00 in Snow Light Snow
2:46 AM 25.0 °F 18.1 °F 24.1 °F 96% 29.66 in 2.0 mi SSW 5.8 mph - 0.00 in Snow Light Snow
2:53 AM 26.1 °F 17.6 °F 24.1 °F 92% 29.72 in 3.0 mi SSW 8.1 mph - 0.00 in Snow Light Snow
3:39 AM 27.0 °F 16.1 °F 25.0 °F 92% 29.64 in 1.8 mi SSW 12.7 mph - 0.00 in Snow Light Snow
3:47 AM 26.6 °F 15.7 °F 24.8 °F 93% 29.64 in 3.0 mi SSW 12.7 mph - 0.00 in Snow Light Snow
3:53 AM 26.1 °F 15.6 °F 25.0 °F 96% 29.70 in 8.0 mi SSW 11.5 mph - 0.00 in Snow Light Snow
4:37 AM 27.0 °F 18.7 °F 23.0 °F 85% 29.66 in 3.0 mi WNW 8.1 mph - 0.00 in Snow Light Snow
4:53 AM 27.0 °F 20.5 °F 23.0 °F 85% 29.73 in 9.0 mi WNW 5.8 mph - 0.00 in   Overcast
5:53 AM 26.1 °F 16.8 °F 19.0 °F 75% 29.76 in 8.0 mi NW 9.2 mph - 0.00 in Snow Light Snow
6:53 AM 26.1 °F 17.6 °F 12.9 °F 58% 29.79 in 10.0 mi NW 8.1 mph - 0.00 in   Overcast
7:53 AM 21.9 °F 11.7 °F 12.9 °F 68% 29.82 in 10.0 mi NNW 9.2 mph - N/A   Mostly Cloudy
8:53 AM 21.0 °F - 12.9 °F 71% 29.85 in 10.0 mi Calm Calm - N/A   Overcast
9:53 AM 24.1 °F - 14.0 °F 65% 29.87 in 10.0 mi Calm Calm - N/A   Overcast
10:53 AM 24.1 °F 13.1 °F 15.1 °F 69% 29.87 in 10.0 mi West 11.5 mph - N/A   Partly Cloudy
11:53 AM 26.1 °F 17.6 °F 15.1 °F 63% 29.88 in 10.0 mi NW 8.1 mph - N/A   Scattered Clouds
12:53 PM 28.9 °F 20.4 °F 18.0 °F 64% 29.88 in 10.0 mi North 9.2 mph - N/A   Overcast
1:53 PM 26.1 °F 12.7 °F 17.1 °F 69% 29.91 in 10.0 mi NW 18.4 mph - N/A   Overcast
2:53 PM 26.1 °F 13.6 °F 10.9 °F 53% 29.95 in 10.0 mi NNW 16.1 mph - N/A   Overcast
3:53 PM 26.1 °F 15.6 °F 9.0 °F 49% 30.00 in 10.0 mi North 11.5 mph - N/A   Partly Cloudy
4:53 PM 18.0 °F 9.8 °F 9.0 °F 68% 30.05 in 10.0 mi NNE 5.8 mph - N/A   Partly Cloudy
5:53 PM 14.0 °F 2.9 °F 7.0 °F 74% 30.11 in 10.0 mi East 8.1 mph - N/A   Overcast
6:53 PM 12.9 °F 1.6 °F 5.0 °F 71% 30.16 in 10.0 mi NE 8.1 mph - N/A   Partly Cloudy
7:53 PM 8.1 °F -0.5 °F 1.9 °F 76% 30.19 in 10.0 mi East 4.6 mph - N/A   Partly Cloudy
8:53 PM 9.0 °F -5.9 °F 3.0 °F 77% 30.20 in 10.0 mi NE 11.5 mph - N/A   Clear
9:53 PM 5.0 °F -5.6 °F -0.0 °F 80% 30.25 in 10.0 mi West 5.8 mph - N/A   Clear
10:53 PM 3.0 °F -8.0 °F -2.0 °F 80% 30.27 in 10.0 mi ENE 5.8 mph - N/A   Clear
11:53 PM -0.0 °F -11.6 °F -4.0 °F 83% 30.30 in 10.0 mi WNW 5.8 mph - N/A   Clear